Weather History for Istanbul / Ataturk, Turkey

Change the Weather History Date:

Monday, February 25, 2013

  Actual Average Record
Temperature  
Mean Temperature 54 °F -  
Max Temperature 66 °F 50 °F - ()
Min Temperature 41 °F 39 °F - ()
Degree Days  
Heating Degree Days 12    
Growing Degree Days 4 (Base 50)    
Moisture  
Dew Point 42 °F    
Average Humidity 80    
Maximum Humidity 100    
Minimum Humidity 38    
Precipitation  
Precipitation 0.00 in - - ()
Sea Level Pressure  
Sea Level Pressure 30.18 in    
Wind  
Wind Speed 11 mph ()    
Max Wind Speed 20 mph    
Max Gust Speed -    
Visibility 4.4 miles    
Events      
T = Trace of Precipitation, MM = Missing Value Source: Averaged Metar Reports

Daily Weather History Graph

Daily Weather History Graph

Search for Another Location

Airport:

Trip Planner

Search our weather history database for the weather conditions in past years. The results will help you decide how hot, cold, wet, or windy it might be!

Date:

Astronomy

Feb. 25, 2013 Rise Set
Actual Time 6:45 AM EET 5:51 PM EET
Civil Twilight 6:17 AM EET 6:18 PM EET
Nautical Twilight 5:45 AM EET 6:50 PM EET
Astronomical Twilight 5:13 AM EET 7:22 PM EET
Moon 5:44 PM EET (2/25) 6:04 AM EET (2/25)
Length of Visible Light 12h 01m
Length of Day
11h 06m
Full, 100% of the Moon is Illuminated
Feb 25
Full
Feb 25
Full
Mar 4
Last Quarter
Mar 11
New
Mar 19
First Quarter

Hourly Weather History & Observations

Time (EET) Temp. Windchill Dew Point Humidity Pressure Visibility Wind Dir Wind Speed Gust Speed Precip Events Conditions
12:20 AM 44.6 °F 39.7 °F 41.0 °F 87% 30.21 in 3.7 mi North 9.2 mph - N/A   Unknown
12:50 AM 44.6 °F 38.8 °F 41.0 °F 87% 30.21 in 3.7 mi North 11.5 mph - N/A   Unknown
1:20 AM 44.6 °F 38.4 °F 41.0 °F 87% 30.21 in 3.7 mi North 12.7 mph - N/A   Unknown
1:50 AM 44.6 °F 39.2 °F 41.0 °F 87% 30.21 in 3.7 mi North 10.4 mph - N/A   Unknown
2:00 AM 44 °F - 41 °F 83% 30.22 in 4 mi North 10.4 mph - -   Mist
2:20 AM 44.6 °F 39.7 °F 41.0 °F 87% 30.21 in 3.7 mi North 9.2 mph - N/A   Unknown
2:50 AM 44.6 °F 39.7 °F 41.0 °F 87% 30.18 in 3.7 mi North 9.2 mph - N/A   Unknown
3:20 AM 42.8 °F 37.5 °F 39.2 °F 87% 30.18 in 3.7 mi North 9.2 mph - N/A   Unknown
3:50 AM 44.6 °F 38.8 °F 39.2 °F 81% 30.18 in 3.7 mi North 11.5 mph - N/A   Unknown
4:20 AM 44.6 °F 39.7 °F 39.2 °F 81% 30.18 in 4.3 mi North 9.2 mph - N/A   Unknown
4:50 AM 42.8 °F 36.6 °F 39.2 °F 87% 30.18 in 4.3 mi North 11.5 mph - N/A   Unknown
5:20 AM 42.8 °F 36.2 °F 41.0 °F 93% 30.18 in 4.3 mi North 12.7 mph - N/A   Unknown
5:50 AM 42.8 °F 35.8 °F 41.0 °F 93% 30.21 in 4.3 mi North 13.8 mph - N/A   Unknown
6:20 AM 41.0 °F 33.9 °F 41.0 °F 100% 30.18 in 3.7 mi North 12.7 mph - N/A   Unknown
6:50 AM 41.0 °F 33.9 °F 41.0 °F 100% 30.18 in 3.7 mi NNW 12.7 mph - N/A   Unknown
7:20 AM 42.8 °F 35.8 °F 42.8 °F 100% 30.21 in 3.7 mi North 13.8 mph - N/A   Unknown
7:50 AM 42.8 °F 36.2 °F 42.8 °F 100% 30.21 in 3.7 mi North 12.7 mph - N/A   Unknown
8:00 AM 43 °F - 42 °F 95% 30.23 in 4 mi North 12.7 mph - -   Mist
8:20 AM 44.6 °F 38.4 °F 42.8 °F 93% 30.21 in 3.7 mi North 12.7 mph - N/A   Unknown
8:50 AM 46.4 °F 40.7 °F 41.0 °F 81% 30.21 in - North 12.7 mph - N/A   Clear
9:20 AM 50.0 °F - 42.8 °F 76% 30.21 in - North 10.4 mph - N/A   Clear
9:50 AM 53.6 °F - 44.6 °F 72% 30.21 in - North 9.2 mph - N/A   Clear
10:20 AM 55.4 °F - 44.6 °F 67% 30.21 in 4.3 mi North 9.2 mph - N/A   Unknown
10:50 AM 57.2 °F - 44.6 °F 63% 30.21 in 5.0 mi North 6.9 mph - N/A   Unknown
11:20 AM 60.8 °F - 44.6 °F 55% 30.21 in - NE 4.6 mph - N/A   Clear
11:50 AM 62.6 °F - 42.8 °F 48% 30.21 in - East 4.6 mph - N/A   Clear
12:20 PM 64.4 °F - 42.8 °F 45% 30.21 in 6.2 mi Variable 4.6 mph - N/A   Partly Cloudy
12:50 PM 64.4 °F - 42.8 °F 45% 30.18 in 6.2 mi Variable 4.6 mph - N/A   Mostly Cloudy
1:20 PM 66.2 °F - 44.6 °F 46% 30.18 in - Variable 3.5 mph - N/A   Clear
1:50 PM 64.4 °F - 44.6 °F 49% 30.18 in - Variable 6.9 mph - N/A   Clear
2:00 PM 65 °F - 45 °F 38% 30.19 in 6 mi NE 6.9 mph - -  
2:20 PM 60.8 °F - 46.4 °F 59% 30.15 in - NNW 13.8 mph - N/A   Clear
2:50 PM 57.2 °F - 44.6 °F 63% 30.15 in - North 17.3 mph - N/A   Clear
3:20 PM 53.6 °F - 44.6 °F 72% 30.15 in - North 18.4 mph - N/A   Clear
3:50 PM 51.8 °F - 42.8 °F 71% 30.15 in - NNW 19.6 mph - N/A   Clear
4:20 PM 51.8 °F - 42.8 °F 71% 30.15 in - North 19.6 mph - N/A   Clear
4:50 PM 51.8 °F - 42.8 °F 71% 30.15 in - North 15.0 mph - N/A   Clear
5:20 PM 48.2 °F - 42.8 °F 82% 30.15 in - North 17.3 mph - N/A   Clear
5:50 PM 46.4 °F 39.2 °F 42.8 °F 87% 30.12 in - North 18.4 mph - N/A   Clear
6:20 PM 46.4 °F 39.5 °F 42.8 °F 87% 30.15 in - NNW 17.3 mph - N/A   Clear
6:50 PM 46.4 °F 40.4 °F 42.8 °F 87% 30.15 in - North 13.8 mph - N/A   Clear
7:20 PM 46.4 °F 40.4 °F 41.0 °F 81% 30.15 in - North 13.8 mph - N/A   Clear
7:50 PM 44.6 °F 37.4 °F 42.8 °F 93% 30.15 in - North 16.1 mph - N/A   Clear
8:00 PM 45 °F - 42 °F 86% 30.18 in 6 mi North 16.1 mph - -  
8:20 PM 44.6 °F 37.4 °F 42.8 °F 93% 30.15 in - North 16.1 mph - N/A   Clear
8:50 PM 46.4 °F 40.1 °F 42.8 °F 87% 30.15 in - North 15.0 mph - N/A   Clear
9:20 PM 46.4 °F 40.1 °F 42.8 °F 87% 30.15 in - North 15.0 mph - N/A   Clear
9:50 PM 46.4 °F 39.8 °F 41.0 °F 81% 30.15 in 5.0 mi North 16.1 mph - N/A   Unknown
10:20 PM 46.4 °F 39.8 °F 42.8 °F 87% 30.15 in 5.0 mi North 16.1 mph - N/A   Scattered Clouds
10:50 PM 44.6 °F 37.4 °F 42.8 °F 93% 30.15 in 6.2 mi North 16.1 mph - N/A   Scattered Clouds
11:20 PM 44.6 °F 37.4 °F 44.6 °F 100% 30.15 in 6.2 mi North 16.1 mph - N/A   Scattered Clouds
11:50 PM 44.6 °F 36.9 °F 44.6 °F 100% 30.15 in 3.7 mi North 18.4 mph - N/A   Mostly Cloudy